Time,TemperatureF,DewpointF,PressureIn,WindDirection,WindDirectionDegrees,WindSpeedMPH,WindSpeedGustMPH,Humidity,HourlyPrecipIn,Conditions,Clouds,dailyrainin,SoftwareType,DateUTC
2013-07-12 00:04:00,76.9,75.0,30.00,WNW,285,0.0,0.0,94,0.00,,,0.02,weatherlink.com 1.10,2013-07-12 04:04:00,
2013-07-12 00:19:00,77.0,75.0,30.00,WNW,285,0.0,0.0,94,0.00,,,0.02,weatherlink.com 1.10,2013-07-12 04:19:00,
2013-07-12 00:34:00,77.0,75.0,29.99,WNW,285,0.0,0.0,94,0.00,,,0.02,weatherlink.com 1.10,2013-07-12 04:34:00,
2013-07-12 00:49:00,76.7,75.0,29.99,WNW,285,0.0,0.0,94,0.00,,,0.02,weatherlink.com 1.10,2013-07-12 04:49:00,
2013-07-12 01:04:00,76.8,75.0,29.98,WNW,285,0.0,0.0,95,0.00,,,0.02,weatherlink.com 1.10,2013-07-12 05:04:00,
2013-07-12 01:19:00,76.3,75.0,29.99,WNW,285,0.0,0.0,95,0.00,,,0.02,weatherlink.com 1.10,2013-07-12 05:19:00,
2013-07-12 01:34:00,76.5,75.0,29.98,WNW,285,0.0,0.0,96,0.00,,,0.02,weatherlink.com 1.10,2013-07-12 05:34:00,
2013-07-12 01:49:00,76.6,75.0,29.98,WNW,285,0.0,0.0,96,0.00,,,0.02,weatherlink.com 1.10,2013-07-12 05:49:00,
2013-07-12 02:04:00,76.4,75.0,29.97,WNW,285,0.0,0.0,96,0.00,,,0.02,weatherlink.com 1.10,2013-07-12 06:04:00,
2013-07-12 02:19:00,76.5,75.0,29.97,WNW,285,0.0,0.0,96,0.00,,,0.02,weatherlink.com 1.10,2013-07-12 06:19:00,
2013-07-12 02:34:00,76.1,75.0,29.97,WNW,285,0.0,0.0,96,0.00,,,0.02,weatherlink.com 1.10,2013-07-12 06:34:00,
2013-07-12 02:49:00,76.4,76.0,29.97,WNW,285,0.0,0.0,97,0.00,,,0.02,weatherlink.com 1.10,2013-07-12 06:49:00,
2013-07-12 03:04:00,76.0,75.0,29.96,WNW,285,0.0,0.0,96,0.00,,,0.02,weatherlink.com 1.10,2013-07-12 07:04:00,
2013-07-12 03:19:00,76.2,75.0,29.96,WNW,285,0.0,0.0,96,0.00,,,0.02,weatherlink.com 1.10,2013-07-12 07:19:00,
2013-07-12 03:34:00,76.4,75.0,29.96,WNW,285,0.0,0.0,96,0.00,,,0.02,weatherlink.com 1.10,2013-07-12 07:34:00,
2013-07-12 03:49:00,76.2,75.0,29.96,WNW,285,0.0,0.0,96,0.00,,,0.02,weatherlink.com 1.10,2013-07-12 07:49:00,
2013-07-12 04:04:00,76.2,75.0,29.95,WNW,285,0.0,0.0,96,0.00,,,0.02,weatherlink.com 1.10,2013-07-12 08:04:00,
2013-07-12 04:19:00,76.3,75.0,29.95,WNW,285,0.0,0.0,97,0.00,,,0.02,weatherlink.com 1.10,2013-07-12 08:19:00,
2013-07-12 04:34:00,76.4,76.0,29.95,WNW,285,0.0,0.0,97,0.00,,,0.02,weatherlink.com 1.10,2013-07-12 08:34:00,
2013-07-12 04:49:00,76.3,75.0,29.96,WNW,285,0.0,0.0,97,0.00,,,0.02,weatherlink.com 1.10,2013-07-12 08:49:00,
2013-07-12 05:04:00,75.8,75.0,29.95,WNW,285,0.0,0.0,97,0.00,,,0.02,weatherlink.com 1.10,2013-07-12 09:04:00,
2013-07-12 05:19:00,75.7,75.0,29.95,WNW,285,0.0,0.0,97,0.00,,,0.02,weatherlink.com 1.10,2013-07-12 09:19:00,
2013-07-12 05:34:00,76.0,75.0,29.95,WNW,285,0.0,0.0,97,0.00,,,0.02,weatherlink.com 1.10,2013-07-12 09:34:00,
2013-07-12 05:49:00,76.2,75.0,29.95,WNW,285,0.0,0.0,97,0.00,,,0.02,weatherlink.com 1.10,2013-07-12 09:49:00,
2013-07-12 06:04:00,76.0,75.0,29.95,WNW,285,0.0,0.0,97,0.00,,,0.02,weatherlink.com 1.10,2013-07-12 10:04:00,
2013-07-12 06:19:00,75.8,75.0,29.95,WNW,285,0.0,0.0,97,0.00,,,0.02,weatherlink.com 1.10,2013-07-12 10:19:00,
2013-07-12 06:34:00,75.7,75.0,29.96,WNW,285,0.0,0.0,98,0.00,,,0.02,weatherlink.com 1.10,2013-07-12 10:34:00,
2013-07-12 06:49:00,75.7,75.0,29.96,WNW,285,0.0,0.0,97,0.00,,,0.02,weatherlink.com 1.10,2013-07-12 10:49:00,
2013-07-12 07:04:00,75.7,75.0,29.96,WNW,285,0.0,0.0,98,0.00,,,0.02,weatherlink.com 1.10,2013-07-12 11:04:00,
2013-07-12 07:19:00,76.1,76.0,29.97,South,190,0.0,0.0,98,0.00,,,0.02,weatherlink.com 1.10,2013-07-12 11:19:00,
2013-07-12 07:34:00,77.2,77.0,29.97,South,190,0.0,0.0,98,0.00,,,0.02,weatherlink.com 1.10,2013-07-12 11:34:00,
2013-07-12 07:49:00,77.6,77.0,29.97,South,190,0.0,0.0,97,0.00,,,0.02,weatherlink.com 1.10,2013-07-12 11:49:00,
2013-07-12 08:04:00,78.2,77.0,29.98,South,190,0.0,0.0,97,0.00,,,0.02,weatherlink.com 1.10,2013-07-12 12:04:00,
2013-07-12 08:19:00,78.4,77.0,29.98,South,190,0.0,0.0,96,0.00,,,0.02,weatherlink.com 1.10,2013-07-12 12:19:00,
2013-07-12 08:34:00,79.1,78.0,29.99,South,190,0.0,0.0,95,0.00,,,0.02,weatherlink.com 1.10,2013-07-12 12:34:00,
2013-07-12 08:49:00,80.0,77.0,29.99,South,190,0.0,1.0,91,0.00,,,0.02,weatherlink.com 1.10,2013-07-12 12:49:00,
2013-07-12 09:04:00,81.1,77.0,29.99,South,180,2.0,4.0,86,0.00,,,0.02,weatherlink.com 1.10,2013-07-12 13:04:00,
2013-07-12 09:19:00,81.9,76.0,29.99,SSE,167,0.0,5.0,83,0.00,,,0.02,weatherlink.com 1.10,2013-07-12 13:19:00,
2013-07-12 09:34:00,82.4,77.0,29.99,South,184,2.0,4.0,84,0.00,,,0.02,weatherlink.com 1.10,2013-07-12 13:34:00,
2013-07-12 09:49:00,82.7,77.0,29.99,SW,216,1.0,6.0,83,0.00,,,0.02,weatherlink.com 1.10,2013-07-12 13:49:00,
2013-07-12 10:04:00,83.1,78.0,29.99,SSW,193,2.0,4.0,83,0.00,,,0.02,weatherlink.com 1.10,2013-07-12 14:04:00,
2013-07-12 10:19:00,83.7,76.0,29.99,SW,235,2.0,6.0,78,0.00,,,0.02,weatherlink.com 1.10,2013-07-12 14:19:00,
2013-07-12 10:34:00,83.9,75.0,29.99,SW,231,0.0,5.0,75,0.00,,,0.02,weatherlink.com 1.10,2013-07-12 14:34:00,
2013-07-12 10:49:00,84.8,75.0,29.99,South,189,0.0,3.0,73,0.00,,,0.02,weatherlink.com 1.10,2013-07-12 14:49:00,
2013-07-12 11:04:00,85.5,76.0,30.00,SW,225,0.0,4.0,72,0.00,,,0.02,weatherlink.com 1.10,2013-07-12 15:04:00,
2013-07-12 11:19:00,85.2,76.0,30.00,SSW,209,1.0,4.0,73,0.00,,,0.00,weatherlink.com 1.10,2013-07-12 15:19:00,
2013-07-12 11:34:00,86.2,75.0,29.99,SW,223,0.0,3.0,70,0.00,,,0.00,weatherlink.com 1.10,2013-07-12 15:34:00,
2013-07-12 11:49:00,87.2,75.0,29.98,WNW,288,0.0,3.0,66,0.00,,,0.00,weatherlink.com 1.10,2013-07-12 15:49:00,
2013-07-12 12:04:00,86.6,75.0,29.99,SSE,158,2.0,5.0,68,0.00,,,0.00,weatherlink.com 1.10,2013-07-12 16:04:00,
2013-07-12 12:19:00,87.2,75.0,29.98,SSW,207,2.0,6.0,68,0.00,,,0.00,weatherlink.com 1.10,2013-07-12 16:19:00,
2013-07-12 12:34:00,87.0,75.0,29.98,SW,217,0.0,3.0,67,0.00,,,0.00,weatherlink.com 1.10,2013-07-12 16:34:00,
2013-07-12 12:49:00,87.0,75.0,29.98,SSE,162,1.0,5.0,68,0.00,,,0.00,weatherlink.com 1.10,2013-07-12 16:49:00,
2013-07-12 13:05:00,83.7,75.0,29.98,SSE,150,8.0,15.0,75,0.00,,,0.00,weatherlink.com 1.10,2013-07-12 17:05:00,
2013-07-12 13:20:00,81.7,74.0,29.97,ESE,111,9.0,14.0,78,0.00,,,0.00,weatherlink.com 1.10,2013-07-12 17:20:00,
2013-07-12 13:35:00,78.5,75.0,29.97,South,178,6.0,11.0,88,0.03,,,0.03,weatherlink.com 1.10,2013-07-12 17:35:00,
2013-07-12 13:50:00,78.1,75.0,29.96,South,172,1.0,6.0,90,0.03,,,0.03,weatherlink.com 1.10,2013-07-12 17:50:00,
2013-07-12 14:20:00,80.4,76.0,29.96,SSE,150,4.0,7.0,87,0.03,,,0.03,weatherlink.com 1.10,2013-07-12 18:20:00,
2013-07-12 14:35:00,81.5,77.0,29.96,SSE,162,3.0,7.0,86,0.00,,,0.03,weatherlink.com 1.10,2013-07-12 18:35:00,
2013-07-12 14:50:00,83.1,76.0,29.95,SSE,159,3.0,7.0,80,0.00,,,0.03,weatherlink.com 1.10,2013-07-12 18:50:00,
2013-07-12 15:05:00,83.6,75.0,29.95,SE,138,3.0,8.0,75,0.00,,,0.03,weatherlink.com 1.10,2013-07-12 19:05:00,
2013-07-12 15:20:00,85.9,76.0,29.95,South,188,2.0,6.0,73,0.00,,,0.03,weatherlink.com 1.10,2013-07-12 19:20:00,
2013-07-12 15:35:00,88.1,76.0,29.94,ESE,105,4.0,7.0,68,0.00,,,0.03,weatherlink.com 1.10,2013-07-12 19:35:00,
2013-07-12 15:50:00,88.3,75.0,29.94,SSE,163,4.0,8.0,64,0.00,,,0.03,weatherlink.com 1.10,2013-07-12 19:50:00,
2013-07-12 16:05:00,89.5,75.0,29.94,SSE,147,2.0,9.0,62,0.00,,,0.03,weatherlink.com 1.10,2013-07-12 20:05:00,
2013-07-12 16:20:00,90.7,75.0,29.93,ENE,70,1.0,6.0,60,0.00,,,0.03,weatherlink.com 1.10,2013-07-12 20:20:00,
2013-07-12 16:35:00,90.9,75.0,29.93,SSE,153,4.0,11.0,59,0.00,,,0.03,weatherlink.com 1.10,2013-07-12 20:35:00,
2013-07-12 17:05:00,84.1,73.0,29.94,WSW,257,11.0,11.0,70,0.00,,,0.03,weatherlink.com 1.10,2013-07-12 21:05:00,
2013-07-12 17:20:00,83.0,73.0,29.95,WSW,242,5.0,14.0,72,0.00,,,0.03,weatherlink.com 1.10,2013-07-12 21:20:00,
2013-07-12 17:35:00,81.8,74.0,29.94,WSW,253,3.0,12.0,76,0.00,,,0.03,weatherlink.com 1.10,2013-07-12 21:35:00,
2013-07-12 19:05:00,75.7,73.0,29.97,ESE,102,2.0,8.0,91,0.01,,,0.04,weatherlink.com 1.10,2013-07-12 23:05:00,
2013-07-12 19:20:00,75.6,73.0,29.97,ENE,76,0.0,4.0,92,0.02,,,0.05,weatherlink.com 1.10,2013-07-12 23:20:00,
2013-07-12 19:50:00,75.1,73.0,29.97,East,84,0.0,0.0,93,0.06,,,0.09,weatherlink.com 1.10,2013-07-12 23:50:00,
2013-07-12 20:05:00,75.2,73.0,29.97,East,84,2.0,2.0,94,0.06,,,0.10,weatherlink.com 1.10,2013-07-13 00:05:00,
2013-07-12 20:20:00,75.2,73.0,29.96,East,84,1.0,3.0,94,0.05,,,0.10,weatherlink.com 1.10,2013-07-13 00:20:00,
2013-07-12 20:50:00,75.1,74.0,29.97,East,84,0.0,0.0,95,0.01,,,0.10,weatherlink.com 1.10,2013-07-13 00:50:00,
2013-07-12 21:05:00,75.1,74.0,29.97,East,84,0.0,0.0,96,0.00,,,0.10,weatherlink.com 1.10,2013-07-13 01:05:00,
2013-07-12 21:20:00,74.9,74.0,29.98,East,84,0.0,0.0,96,0.00,,,0.10,weatherlink.com 1.10,2013-07-13 01:20:00,
2013-07-12 21:35:00,75.3,74.0,29.98,East,84,0.0,0.0,96,0.00,,,0.10,weatherlink.com 1.10,2013-07-13 01:35:00,
2013-07-12 21:50:00,75.2,74.0,29.99,East,84,0.0,0.0,96,0.00,,,0.10,weatherlink.com 1.10,2013-07-13 01:50:00,
2013-07-12 22:20:00,74.8,74.0,30.00,East,84,0.0,0.0,96,0.00,,,0.10,weatherlink.com 1.10,2013-07-13 02:20:00,
2013-07-12 22:35:00,74.8,74.0,30.00,East,84,0.0,0.0,96,0.00,,,0.10,weatherlink.com 1.10,2013-07-13 02:35:00,
2013-07-12 22:50:00,74.8,74.0,30.00,East,84,0.0,0.0,96,0.00,,,0.10,weatherlink.com 1.10,2013-07-13 02:50:00,
2013-07-12 23:06:00,74.9,74.0,30.00,East,84,0.0,0.0,97,0.00,,,0.10,weatherlink.com 1.10,2013-07-13 03:06:00,
2013-07-12 23:21:00,75.0,74.0,30.00,East,84,0.0,0.0,97,0.00,,,0.10,weatherlink.com 1.10,2013-07-13 03:21:00,
2013-07-12 23:51:00,75.1,74.0,29.99,East,84,0.0,0.0,97,0.00,,,0.10,weatherlink.com 1.10,2013-07-13 03:51:00,